Wind_Speed
6 6 6 5 5 5 5 5 5 5 5 5 6 6 6 6 6 6 6 7 8 8 9 10 10 11 10 11 10 9 9 9 8 8 8 8 8 7 7 7 7 7 8
7 7 7 6 6 6 6 6 5 6 6 7 6 6 6 6 6 6 6 6 7 8 8 9 10 10 10 10 11 10 9 9 9 8 9 8 9 7 7 8 8 9 9
7 8 8 8 8 8 7 7 7 7 7 7 6 6 6 5 6 6 6 7 7 7 8 9 9 9 9 10 10 10 10 10 10 10 9 9 9 8 7 8 9 10 10
8 8 8 9 10 9 9 8 8 8 8 8 7 7 7 6 5 6 6 7 7 7 8 9 10 10 10 10 11 11 10 10 10 9 10 9 9 9 9 9 10 12 12
9 9 9 9 9 9 9 9 9 8 8 8 8 7 7 7 6 6 6 7 7 7 8 9 9 10 10 11 11 11 11 11 11 11 10 9 10 10 11 11 12 12 12
10 10 11 10 10 9 9 9 8 8 8 8 8 8 8 7 7 7 7 8 7 8 8 9 9 9 10 10 11 11 11 11 11 11 10 10 10 10 11 12 12 13 13
11 12 11 12 11 10 10 10 9 8 8 8 8 9 9 8 8 8 8 8 8 8 8 8 8 9 9 10 10 10 11 12 12 12 12 11 11 12 12 12 13 14 14
12 12 11 12 11 11 11 10 10 9 9 8 8 8 8 9 8 8 9 9 9 9 8 8 9 9 10 10 11 11 12 13 13 13 13 13 13 13 13 13 13 14 15
13 12 12 12 11 11 11 11 10 10 10 10 9 9 9 8 9 9 9 10 9 9 9 9 9 9 10 10 12 12 13 13 14 14 14 14 14 14 15 15 15 16 16
15 14 12 12 11 11 11 11 11 11 11 11 11 11 10 10 10 10 11 10 10 10 10 10 10 9 10 11 12 12 13 14 15 15 15 15 15 16 16 17 17 17 16
16 15 14 13 13 12 13 13 13 12 12 12 12 13 13 12 12 12 12 12 12 11 11 10 10 10 11 11 12 13 14 14 15 15 15 16 16 17 18 18 18 18 18
17 16 16 15 15 15 14 14 14 14 14 14 14 13 13 13 13 13 13 13 13 12 12 12 12 12 12 12 13 14 14 15 15 16 16 17 18 18 19 19 19 19 18
18 18 17 16 16 16 16 16 15 15 15 15 15 15 14 14 14 14 15 14 14 13 13 14 14 14 13 14 14 14 14 15 16 16 17 17 18 19 20 20 19 19 19
18 18 18 18 18 18 18 17 17 17 17 17 16 16 16 16 16 15 15 15 15 15 15 15 15 15 15 14 15 15 15 16 16 17 18 18 18 19 19 20 20 19 19
20 20 20 20 19 19 19 19 18 18 18 18 18 17 17 17 16 15 15 16 16 15 16 16 16 16 16 15 16 16 16 17 17 18 18 18 19 19 20 20 20 20 20
21 21 21 21 21 21 21 20 20 19 20 20 20 19 19 18 18 17 17 16 17 17 17 17 17 16 17 17 17 18 18 18 18 18 19 19 20 20 20 20 21 21 21
24 23 22 22 22 22 22 22 22 21 21 21 21 21 20 20 19 19 18 18 18 19 18 18 18 18 17 18 18 18 19 19 19 19 19 19 19 20 21 20 21 22 22
24 24 24 23 23 22 22 23 23 23 22 21 21 21 21 20 20 20 20 20 20 21 20 20 20 20 19 19 19 19 20 19 20 20 20 20 19 20 20 21 22 23 23
25 25 25 25 25 24 23 23 23 23 23 23 23 22 22 22 21 21 21 22 22 22 22 21 21 22 22 21 21 21 21 21 21 21 21 21 21 21 21 22 22 24 25
26 26 27 26 25 25 25 24 24 24 24 24 24 24 23 23 23 22 22 23 22 22 22 22 22 22 22 22 22 21 22 22 23 22 22 22 22 23 23 23 24 25 25
27 27 27 26 25 25 25 25 24 24 25 24 25 25 25 25 25 25 24 23 23 23 23 22 23 23 22 22 23 22 22 23 23 23 23 23 23 24 24 24 25 25 26
27 27 27 27 27 26 26 25 25 25 26 26 25 25 25 25 25 25 25 25 25 24 24 23 23 23 23 23 23 24 24 23 23 23 24 24 24 25 25 26 26 26 27
26 26 27 27 26 26 26 27 27 25 25 25 25 25 25 25 26 26 25 25 25 25 25 24 24 24 24 24 24 25 25 25 25 25 25 25 26 26 26 26 26 27 27
26 26 26 26 26 26 26 26 27 25 25 25 25 25 25 25 26 26 25 25 25 25 25 25 25 25 25 25 25 25 25 25 26 27 27 27 27 27 27 27 27 27 26
26 27 27 27 26 26 26 26 27 26 26 26 25 25 25 26 27 27 26 26 26 26 26 26 26 26 26 27 27 27 26 27 26 27 28 28 27 27 28 27 27 27 27
27 27 27 27 27 26 26 26 26 27 26 26 25 25 26 27 27 27 27 27 27 27 27 27 27 27 27 27 28 27 27 27 28 27 28 28 28 28 28 27 27 27 27
Wind_Direction
329 334 333 328 318 313 306 306 302 301 299 294 296 297 290 288 280 262 258 261 258 257 259 259 263 263 259 260 260 260 261 261 261 262 269 275 271 270 263 257 260 260 262
324 325 323 321 315 311 309 308 304 302 303 305 302 301 302 299 289 281 275 277 268 261 265 266 265 268 261 258 257 258 263 261 262 270 272 273 272 272 262 264 268 269 268
322 318 319 319 316 312 306 301 296 294 300 300 300 299 293 298 293 286 281 280 275 269 267 269 269 269 268 268 262 259 263 260 263 268 272 277 278 274 273 268 266 270 273
319 318 320 318 317 311 303 293 293 295 299 299 296 297 296 298 292 287 281 282 280 277 275 274 275 271 273 271 268 263 262 264 269 273 277 278 277 277 277 274 272 275 276
318 314 314 314 312 308 302 297 291 291 294 296 294 296 287 282 283 289 288 284 283 279 281 280 277 270 271 271 268 263 265 268 272 276 278 279 277 278 281 277 276 279 279
318 314 310 307 307 306 304 302 296 289 289 293 296 294 289 275 269 278 282 283 279 277 275 277 281 279 274 269 267 264 267 270 273 276 279 280 279 281 284 284 281 283 284
313 313 308 305 303 303 300 299 296 291 291 293 294 294 291 284 279 281 285 283 281 280 275 280 284 280 276 272 267 266 267 270 271 274 277 279 279 280 283 285 286 286 285
305 307 308 305 307 301 297 294 294 293 289 289 293 294 295 290 286 287 291 291 290 291 288 288 287 283 278 276 274 272 271 270 272 273 275 278 280 281 281 285 286 286 286
305 303 303 303 305 301 298 292 290 289 292 293 291 290 290 293 294 291 296 299 296 295 292 293 291 285 281 279 278 277 276 275 275 275 275 276 277 279 281 283 286 286 286
305 303 297 298 301 298 294 294 290 286 288 293 291 288 286 286 289 288 291 295 298 297 295 294 292 290 284 279 279 280 279 278 278 276 274 274 276 279 280 282 285 286 287
301 298 295 292 292 292 291 290 290 286 286 287 289 290 287 284 284 285 286 289 292 296 296 293 291 291 287 284 283 283 283 281 281 277 275 275 277 278 279 281 282 284 284
295 295 294 292 288 289 288 288 286 285 281 284 287 287 285 282 282 286 286 286 289 293 293 293 290 287 287 287 286 286 286 285 284 282 279 278 278 278 280 282 282 281 280
291 293 295 290 290 289 287 284 281 281 281 282 284 286 283 282 282 284 286 284 284 289 290 290 290 288 287 287 289 289 288 286 286 285 285 285 281 279 280 281 280 280 278
288 291 291 290 289 287 285 283 280 281 281 282 281 283 281 282 284 283 282 283 284 287 288 288 288 289 288 287 288 288 289 288 287 287 288 289 288 284 281 280 281 280 279
288 288 288 289 289 287 284 284 283 280 281 280 281 282 282 281 282 281 282 282 285 286 286 287 287 287 287 287 287 287 288 289 291 289 288 289 290 287 282 281 281 281 280
284 284 284 286 285 284 282 282 282 280 279 278 278 279 282 284 282 280 282 286 286 286 285 286 286 287 286 287 288 288 288 290 290 290 290 289 290 290 286 282 281 281 279
281 282 283 284 283 281 280 279 279 279 279 278 276 277 279 280 280 281 283 283 282 284 286 286 286 286 285 287 287 287 287 289 288 289 289 287 289 290 288 285 282 282 281
280 279 281 284 284 282 280 278 277 276 277 278 277 277 278 278 280 280 281 282 283 284 285 285 284 284 283 285 285 286 286 287 288 288 287 285 287 288 289 286 284 282 282
283 283 283 282 282 280 281 281 277 275 275 276 277 278 278 279 279 279 281 282 282 282 283 285 285 284 283 285 285 284 285 286 287 287 286 285 284 286 288 288 287 287 284
284 285 284 284 282 279 279 279 278 275 274 276 276 277 278 279 279 280 281 281 281 282 284 284 284 284 283 285 286 285 285 286 286 287 287 286 286 286 287 287 287 287 285
285 284 284 282 281 281 280 277 278 278 275 274 275 275 274 276 278 280 280 279 281 284 283 283 284 283 284 286 286 285 285 286 286 288 289 288 287 288 287 286 286 286 284
282 282 282 281 279 279 279 277 277 279 278 275 275 274 273 275 277 278 278 278 280 281 281 281 283 283 282 283 285 285 284 284 285 286 288 288 289 289 289 290 289 287 288
280 280 279 279 278 278 278 276 276 277 277 276 273 273 273 275 276 276 276 278 278 279 280 281 282 282 282 281 281 282 283 284 285 286 286 286 287 289 290 290 291 291 289
279 279 279 278 278 277 277 276 275 274 275 274 273 273 273 275 276 276 277 278 278 278 279 279 279 280 280 280 281 280 281 282 284 286 287 288 287 287 289 290 290 290 290
278 278 278 277 276 276 276 276 276 272 271 272 273 273 274 274 276 276 277 277 277 277 278 278 278 279 279 279 280 281 281 281 281 283 283 286 286 287 287 287 288 289 290
277 278 276 275 275 275 277 277 275 271 270 270 272 274 275 275 276 276 276 276 276 276 277 277 278 279 279 279 280 280 281 281 281 281 282 284 285 286 287 287 287 288 289
Height
5872 5871 5871 5870 5870 5869 5869 5869 5868 5868 5868 5868 5868 5867 5867 5867 5867 5868 5868 5869 5870 5870 5871 5872 5873 5873 5874 5874 5875 5876 5877 5877 5878 5878 5879 5879 5879 5879 5879 5880 5880 5880 5881
5872 5871 5870 5870 5869 5868 5868 5868 5868 5867 5867 5867 5866 5866 5866 5866 5866 5866 5867 5868 5868 5869 5869 5870 5871 5871 5872 5872 5873 5874 5875 5875 5876 5877 5877 5877 5877 5877 5877 5878 5878 5878 5879
5871 5871 5870 5869 5868 5868 5867 5867 5867 5867 5866 5866 5865 5865 5865 5865 5865 5865 5866 5866 5867 5867 5868 5868 5869 5869 5870 5870 5871 5872 5873 5873 5874 5875 5875 5875 5875 5875 5876 5876 5876 5876 5876
5871 5870 5869 5869 5868 5867 5866 5866 5866 5866 5865 5865 5864 5864 5864 5864 5864 5864 5865 5865 5865 5865 5866 5866 5867 5867 5868 5868 5869 5869 5870 5871 5872 5872 5872 5873 5873 5873 5873 5873 5873 5873 5873
5870 5869 5869 5868 5867 5866 5865 5865 5865 5865 5864 5864 5863 5863 5863 5863 5863 5863 5863 5863 5863 5864 5864 5864 5865 5865 5865 5866 5866 5867 5868 5869 5869 5870 5870 5870 5870 5870 5871 5871 5871 5870 5870
5869 5868 5867 5867 5866 5865 5865 5864 5864 5864 5863 5862 5862 5861 5861 5861 5861 5861 5861 5862 5862 5862 5862 5862 5862 5862 5863 5863 5864 5865 5866 5866 5867 5867 5867 5868 5868 5868 5868 5868 5867 5867 5867
5867 5867 5866 5865 5865 5864 5864 5863 5863 5862 5862 5861 5861 5860 5860 5860 5859 5859 5860 5860 5860 5860 5860 5860 5860 5860 5861 5861 5862 5862 5863 5863 5864 5864 5865 5865 5865 5865 5865 5864 5864 5864 5863
5866 5865 5865 5864 5863 5863 5862 5862 5861 5861 5860 5859 5859 5859 5859 5859 5858 5858 5858 5858 5858 5857 5858 5858 5858 5858 5859 5859 5859 5860 5860 5861 5861 5861 5862 5862 5862 5861 5861 5861 5860 5860 5859
5864 5863 5863 5862 5862 5861 5861 5860 5859 5859 5859 5858 5858 5858 5857 5857 5857 5857 5856 5856 5856 5856 5856 5856 5856 5856 5856 5857 5857 5857 5857 5858 5858 5858 5858 5858 5858 5858 5858 5857 5857 5856 5855
5862 5861 5861 5860 5860 5859 5859 5858 5858 5858 5857 5856 5856 5856 5855 5855 5855 5855 5855 5854 5854 5854 5854 5854 5854 5854 5854 5854 5854 5854 5854 5854 5854 5854 5854 5854 5854 5854 5854 5853 5853 5852 5851
5860 5859 5858 5858 5857 5857 5857 5856 5856 5855 5855 5855 5854 5854 5853 5853 5853 5853 5853 5852 5852 5851 5851 5851 5851 5851 5851 5851 5851 5851 5851 5851 5850 5850 5850 5850 5850 5850 5850 5849 5849 5848 5846
5857 5856 5855 5855 5854 5854 5854 5854 5853 5853 5852 5852 5852 5851 5851 5851 5850 5850 5850 5850 5849 5848 5848 5848 5848 5848 5848 5848 5848 5847 5847 5847 5847 5846 5846 5846 5845 5845 5845 5845 5844 5843 5842
5853 5853 5852 5851 5851 5851 5851 5850 5850 5850 5850 5849 5849 5848 5848 5848 5847 5847 5847 5846 5846 5846 5845 5845 5845 5844 5844 5844 5844 5844 5843 5843 5843 5842 5842 5841 5840 5840 5840 5839 5839 5838 5838
5850 5849 5849 5848 5848 5848 5847 5847 5847 5846 5846 5846 5846 5845 5844 5844 5844 5843 5843 5843 5843 5842 5842 5842 5841 5841 5841 5841 5840 5840 5839 5839 5838 5838 5837 5836 5835 5835 5834 5834 5833 5833 5833
5846 5846 5845 5844 5844 5843 5843 5843 5842 5842 5842 5842 5842 5841 5841 5840 5840 5840 5839 5839 5839 5839 5838 5838 5837 5837 5836 5836 5836 5836 5835 5835 5834 5833 5832 5831 5830 5829 5828 5828 5828 5828 5828
5842 5841 5841 5840 5839 5839 5839 5838 5838 5838 5838 5838 5837 5837 5836 5836 5836 5835 5835 5835 5835 5834 5834 5834 5833 5833 5832 5832 5831 5831 5830 5830 5829 5828 5827 5826 5825 5823 5822 5822 5822 5822 5822
5836 5836 5835 5835 5834 5834 5833 5833 5833 5833 5833 5833 5832 5832 5832 5832 5831 5831 5831 5830 5830 5829 5829 5829 5828 5828 5827 5827 5826 5826 5825 5825 5824 5823 5822 5821 5819 5818 5816 5816 5816 5817 5816
5830 5829 5829 5829 5828 5828 5827 5827 5827 5827 5827 5827 5827 5827 5827 5827 5826 5826 5826 5825 5825 5824 5824 5824 5824 5823 5822 5821 5821 5821 5820 5819 5819 5817 5816 5815 5814 5813 5812 5811 5811 5811 5811
5823 5823 5823 5823 5822 5822 5821 5821 5821 5821 5821 5821 5821 5821 5821 5821 5821 5820 5820 5820 5819 5819 5818 5818 5818 5817 5817 5816 5815 5815 5814 5813 5813 5812 5811 5810 5809 5808 5807 5806 5805 5804 5804
5816 5816 5816 5816 5815 5815 5815 5814 5814 5814 5815 5815 5815 5815 5815 5815 5815 5814 5814 5814 5813 5812 5812 5812 5811 5811 5810 5810 5809 5809 5808 5807 5806 5805 5805 5804 5803 5802 5801 5800 5799 5798 5797
5809 5809 5808 5808 5808 5808 5808 5807 5807 5807 5807 5808 5808 5808 5808 5808 5808 5808 5808 5807 5806 5806 5805 5805 5805 5805 5804 5803 5803 5802 5801 5801 5800 5799 5799 5798 5797 5796 5795 5793 5792 5790 5789
5802 5801 5801 5801 5801 5801 5801 5800 5800 5800 5800 5800 5800 5800 5801 5801 5801 5801 5800 5800 5800 5799 5799 5799 5798 5798 5797 5796 5796 5795 5795 5794 5794 5793 5792 5791 5790 5790 5788 5787 5785 5783 5782
5794 5794 5793 5793 5793 5793 5793 5793 5793 5792 5793 5793 5793 5793 5793 5793 5793 5793 5793 5793 5792 5792 5792 5792 5791 5790 5790 5789 5789 5788 5788 5787 5787 5786 5785 5784 5783 5782 5781 5779 5778 5776 5774
5786 5786 5785 5786 5786 5786 5785 5785 5785 5785 5785 5785 5785 5786 5786 5786 5785 5785 5785 5785 5785 5784 5784 5784 5783 5783 5782 5782 5781 5781 5780 5780 5780 5778 5778 5777 5776 5775 5773 5771 5770 5768 5767
5779 5778 5778 5778 5778 5778 5777 5777 5777 5777 5777 5778 5778 5778 5778 5778 5778 5778 5778 5777 5777 5776 5776 5776 5776 5775 5775 5774 5773 5773 5773 5773 5772 5771 5770 5769 5768 5767 5766 5764 5762 5761 5759
5771 5770 5770 5770 5770 5770 5769 5769 5769 5769 5770 5770 5770 5771 5771 5771 5770 5770 5769 5769 5769 5769 5768 5768 5768 5767 5767 5766 5766 5765 5765 5764 5764 5763 5762 5761 5760 5758 5758 5757 5755 5753 5752